Location: Orange Harbor Mobile Home Park
(26.6923°N, 81.7937°W)
Time: 07:27:09
(UTC+00:00)

Cosmos 1437 Rocket - Pass Details

Date: 19 September 2020
Orbit: 505 x 562 km, 81.2° (Epoch: 29 October)

Event Time Altitude Azimuth Distance (km) Brightness Sun altitude
Rises 10:22:22 0° 182° (S) 2,591 6.2 -12.5°
Reaches altitude 10° 10:24:29 10° 181° (S) 1,709 5.2 -12.0°
Maximum altitude 10:28:13 74° 96° (E) 528 2.9 -11.2°
Drops below altitude 10° 10:31:59 10° 11° (N) 1,726 5.6 -10.3°
Sets 10:34:08 0° 10° (N) 2,619 6.5 -9.9°
